Simultaneous Nadir Overpasses (SNOs) Predictions

Prediction of SNOs between NOAA-19 and NPP Satellite Orbit:

Table of predicted SNOs for the next 14.0 days since TLE Epoch: 12/6/2015
Index Date (NOAA-19) Time (NOAA-19) Lat,Lon (NOAA-19) SZA (NOAA-19 ) Date (NPP) Time (NPP) Lat,Lon (NPP) SZA (NPP ) Distance(km) Time Diff (sec)
1 12/16/2015 04:37:33 -81.03,-122.46 72.44 12/16/2015 04:38:40 -81.03,-122.53 72.47 1.30 67
2 12/16/2015 05:28:29 81.03, 44.71 107.58 12/16/2015 05:29:25 81.03, 44.69 107.55 0.26 56
3 12/16/2015 06:19:35 -81.03,-147.84 72.45 12/16/2015 06:20:10 -81.03,-147.95 72.46 2.02 35
4 12/16/2015 07:10:31 81.03, 19.33 107.57 12/16/2015 07:10:55 81.03, 19.27 107.56 1.03 24
5 12/16/2015 08:01:37 -81.03,-173.22 72.47 12/16/2015 08:01:40 -81.03,-173.38 72.45 2.81 3
6 12/16/2015
